Tracking 19377 objects as of 10-Dec-2018
HD Live streaming from Space Station
objects crossing your sky now

FLOCK 1C 1

Track FLOCK 1C 1 now!
10-day predictions
FLOCK 1C 1 is classified as:


NORAD ID: 40027
Int'l Code: 2014-033T
Perigee: 597.9 km
Apogee: 614.9 km
Inclination: 97.9 °
Period: 96.7 minutes
Semi major axis: 6977 km
RCS: Unknown
Launch date: June 19, 2014
Source: United States (US)
Launch site: Orenburg, Russia (OREN)
aabbcc
Your satellite tracking list
Your tracking list is empty




NASA's NSSDC Master Catalog

Two Line Element Set (TLE):
1 40027U 14033T   18344.18947596  .00000635  00000-0  72518-4 0  9994
2 40027  97.9219 261.9983 0012187 330.8464  29.2071 14.89561702243022
Source of the keplerian elements: AFSPC